Location: Chatou
(48.8898°N, 2.1586°E)
Time: 10:16:17
(UTC+00:00)

KAITUO 1B - Visible Passes

Search period start: 30 November 2023 00:00
Search period end: 10 December 2023 00:00
Orbit: 352 x 359 km, 97.4° (Epoch: 29 November)

Date Brightness Start Highest point End Pass type
(mag) Time Alt. Az. Time Alt. Az. Time Alt. Az.
01 Dec ? 06:32:37 10° E 06:33:03 10° E 06:33:29 10° E visible
05 Dec ? 06:44:19 10° ENE 06:45:59 14° E 06:47:37 10° SE visible
09 Dec ? 06:50:34 10° NE 06:52:29 17° E 06:54:25 10° SE visible
